FW8355 Weather Reports


Display with metric or nautical units.
time (UTC)temp
F
wind
direction
speed
MPH
gust
MPH
rain 1hr
in
rain 24hr
in
rain mn
in
humidity
%
barometer
mb
20260505100017 70 203 4.0 9.0 0.00 0.00 0.00 41 1015.2
20260505095017 70 225 2.0 6.0 0.00 0.00 0.00 43 1015.2
20260505094017 69 203 1.0 6.0 0.00 0.00 0.00 46 1015.3
20260505093037 68 135 2.0 4.0 0.00 0.00 0.00 55 1015.1
20260505092017 67 113 2.0 5.0 0.00 0.00 0.00 58 1015.2
20260505091017 66 113 2.0 5.0 0.00 0.00 0.00 59 1015.2
20260505090017 66 158 2.0 5.0 0.00 0.00 0.00 61 1015.2
20260505085017 65 113 2.0 4.0 0.00 0.00 0.00 61 1015.2
20260505084017 65 203 1.0 3.0 0.00 0.00 0.00 61 1015.1
20260505083017 65 203 1.0 4.0 0.00 0.00 0.00 63 1015.2
20260505082017 64 203 1.0 3.0 0.00 0.00 0.00 64 1015.2
20260505081017 63 113 2.0 4.0 0.00 0.00 0.00 65 1015.1
20260505080037 63 0.0 1.0 0.00 0.00 0.00 64 1015.1
20260505075017 62 158 1.0 4.0 0.00 0.00 0.00 65 1015.1
20260505074017 63 0.0 0.0 0.00 0.00 0.00 67 1015.0
20260505073017 62 0.0 0.0 0.00 0.00 0.00 66 1015.1
20260505072017 61 0.0 0.0 0.00 0.00 0.00 67 1015.0
20260505071017 60 0.0 0.0 0.00 0.00 0.00 71 1015.0
20260505070019 60 0.0 0.0 0.00 0.00 0.00 72 1015.0
20260505065017 60 0.0 0.0 0.00 0.00 0.00 73 1015.2
20260505064016 60 0.0 0.0 0.00 0.00 0.00 72 1015.2
20260505063037 59 0.0 0.0 0.00 0.00 0.00 73 1015.2
20260505062016 59 0.0 0.0 0.00 0.00 0.00 76 1015.1
20260505061017 58 0.0 0.0 0.00 0.00 0.00 75 1015.1
20260505060020 58 0.0 0.0 0.00 0.00 0.00 72 1014.9
20260505055016 58 0.0 0.0 0.00 0.00 0.00 71 1014.8
20260505054016 58 0.0 0.0 0.00 0.00 0.00 70 1014.8
20260505053017 58 0.0 0.0 0.00 0.00 0.00 71 1014.8
20260505052017 58 0.0 0.0 0.00 0.00 0.00 67 1014.9
20260505051016 57 0.0 0.0 0.00 0.00 0.00 62 1014.8
20260505041016 55 45 1.0 2.0 0.00 0.00 0.00 65 1014.7
20260505040016 55 45 1.0 3.0 0.00 0.00 0.00 68 1014.6
20260505035037 55 0.0 0.0 0.00 0.00 0.00 69 1014.6
20260505034016 56 0.0 0.0 0.00 0.00 0.00 67 1014.7
20260505033016 56 0.0 0.0 0.00 0.00 0.00 66 1014.6
20260505032016 56 0.0 0.0 0.00 0.00 0.00 65 1014.6
20260505031036 56 0.0 0.0 0.00 0.00 0.00 67 1014.6
20260505030017 55 0.0 0.0 0.00 0.00 0.00 67 1014.5
20260505025016 55 0.0 0.0 0.00 0.00 0.00 68 1014.6
20260505024016 56 0.0 0.0 0.00 0.00 0.00 66 1014.7
20260505023016 56 0.0 0.0 0.00 0.00 0.00 66 1014.8
20260505022036 55 0.0 0.0 0.00 0.00 0.00 70 1014.8
20260505021016 56 0.0 0.0 0.00 0.00 0.00 69 1015.0
20260505020016 56 0.0 0.0 0.00 0.00 0.00 65 1015.0
20260505015016 58 0.0 0.0 0.00 0.00 0.00 61 1015.0
20260505014016 57 23 1.0 3.0 0.00 0.00 0.00 63 1015.2
20260505013017 56 45 1.0 4.0 0.00 0.00 0.00 66 1015.2
20260505012016 55 0.0 0.0 0.00 0.00 0.00 70 1015.3
20260505011016 55 0.0 0.0 0.00 0.00 0.00 72 1015.4
20260505010056 55 0.0 0.0 0.00 0.00 0.00 75 1015.4
20260505005036 54 0.0 0.0 0.00 0.00 0.00 76 1015.5
20260505004036 54 0.0 0.0 0.00 0.00 0.00 76 1015.5
20260505003016 54 0.0 0.0 0.00 0.00 0.00 76 1015.5
20260505002016 55 0.0 0.0 0.00 0.00 0.00 75 1015.5
20260505001016 55 0.0 0.0 0.00 0.00 0.00 74 1015.6
20260505000016 55 0.0 0.0 0.00 0.00 0.00 74 1015.5
20260504235016 55 0.0 0.0 0.00 0.00 0.00 73 1015.6
20260504234016 55 0.0 0.0 0.00 0.00 0.00 74 1015.7
20260504233016 55 0.0 0.0 0.00 0.00 0.00 77 1015.7
20260504232016 55 0.0 0.0 0.00 0.00 0.00 78 1015.7
20260504231016 55 0.0 0.0 0.00 0.00 0.00 78 1015.8
20260504230016 56 0.0 0.0 0.00 0.00 0.00 78 1015.8
20260504225016 56 0.0 0.0 0.00 0.00 0.00 77 1016.0
20260504224016 56 0.0 0.0 0.00 0.00 0.00 78 1016.0
20260504223016 56 0.0 0.0 0.00 0.00 0.00 78 1016.1
20260504222016 56 0.0 0.0 0.00 0.00 0.00 79 1016.2
20260504221036 56 0.0 0.0 0.00 0.00 0.00 79 1016.2
20260504220016 56 0.0 0.0 0.00 0.00 0.00 78 1016.2
20260504215036 57 0 1.0 2.0 0.00 0.00 0.00 77 1016.3
20260504214016 57 338 2.0 4.0 0.00 0.00 0.00 78 1016.3
20260504213036 57 338 1.0 2.0 0.00 0.00 0.00 79 1016.3
20260504212016 57 338 2.0 3.0 0.00 0.00 0.00 79 1016.3
20260504211016 57 338 2.0 4.0 0.00 0.00 0.00 80 1016.4
20260504210016 57 23 1.0 2.0 0.00 0.00 0.00 80 1016.5
20260504205016 57 338 1.0 3.0 0.00 0.00 0.00 80 1016.5
20260504204016 57 23 1.0 2.0 0.00 0.00 0.00 81 1016.5
20260504203036 57 23 1.0 3.0 0.00 0.00 0.00 81 1016.6
20260504202016 57 0 1.0 3.0 0.00 0.00 0.00 81 1016.7
20260504201016 57 0.0 0.0 0.00 0.00 0.00 81 1016.7
20260504200016 57 0.0 0.0 0.00 0.00 0.00 81 1016.7
20260504195016 58 0.0 0.0 0.00 0.00 0.00 81 1016.6
20260504194016 58 0.0 0.0 0.00 0.00 0.00 80 1016.6
20260504193017 59 0.0 0.0 0.00 0.00 0.00 79 1016.6
20260504192016 58 0.0 0.0 0.00 0.00 0.00 74 1016.5
20260504191036 59 0.0 0.0 0.00 0.00 0.00 69 1016.4
20260504190039 60 0.0 0.0 0.00 0.00 0.00 68 1016.3
20260504185016 60 0.0 1.0 0.00 0.00 0.00 65 1016.3
20260504184036 61 0.0 1.0 0.00 0.00 0.00 66 1016.2
20260504183016 61 0.0 1.0 0.00 0.00 0.00 67 1016.1
20260504182016 61 0.0 2.0 0.00 0.00 0.00 73 1016.0
20260504181016 62 0.0 1.0 0.00 0.00 0.00 75 1015.7
20260504180016 63 0.0 1.0 0.00 0.00 0.00 74 1015.5
20260504175016 63 203 3.0 5.0 0.00 0.00 0.00 75 1015.6
20260504174016 64 203 4.0 8.0 0.00 0.00 0.00 73 1015.5
20260504173036 64 203 2.0 6.0 0.00 0.00 0.00 62 1015.6
20260504172016 64 225 2.0 5.0 0.00 0.00 0.00 69 1015.5
20260504171016 64 225 3.0 8.0 0.00 0.00 0.00 70 1015.4
20260504151015 70 225 4.0 11.0 0.00 0.00 0.00 62 1015.5
20260504141016 70 203 5.0 12.0 0.00 0.00 0.00 53 1015.8